Simultaneous Nadir Overpasses (SNOs) Predictions

Prediction of SNOs between AQUA and NOAA-19 Satellite Orbit:

Table of predicted SNOs for the next 14.0 days since TLE Epoch: 12/14/2024
Index Date (AQUA) Time (AQUA) Lat,Lon (AQUA) SZA (AQUA ) Date (NOAA-19) Time (NOAA-19) Lat,Lon (NOAA-19) SZA (NOAA-19 ) Distance(km) Time Diff (sec)
1 12/15/2024 22:26:53 75.62,-155.17 98.87 12/15/2024 22:25:57 75.61,-155.08 98.87 2.79 56
2 12/15/2024 23:16:13 -75.67, 12.33 81.08 12/15/2024 23:16:52 -75.66, 12.35 81.09 1.64 39
3 12/18/2024 01:25:09 75.63, 160.26 98.96 12/18/2024 01:24:28 75.62, 160.35 98.94 3.11 41
4 12/18/2024 02:14:29 -75.69, -32.23 80.99 12/18/2024 02:15:23 -75.69, -32.15 80.99 2.34 54
5 12/20/2024 04:23:23 75.60, 115.84 98.97 12/20/2024 04:22:59 75.61, 115.75 98.97 2.52 24
6 12/20/2024 05:12:44 -75.71, -76.80 80.94 12/20/2024 05:13:54 -75.70, -76.67 80.94 3.61 70
7 12/22/2024 07:21:37 75.63, 71.26 98.99 12/22/2024 07:21:29 75.64, 71.27 99.00 1.25 8
8 12/24/2024 09:30:19 -75.13,-139.48 81.54 12/24/2024 09:29:13 -75.07,-142.40 81.62 83.72 66
9 12/24/2024 10:19:50 75.66, 26.67 98.98 12/24/2024 10:19:59 75.66, 26.75 98.99 2.26 9
10 12/26/2024 12:28:40 -75.60, 174.66 81.14 12/26/2024 12:27:32 -75.61, 174.74 81.14 2.23 68



Historial Predications of SNOs between AQUA and NOAA-19
